[[[{"header":{"parameterUnit":"kt","parameterCategory":2,"dx":1,"dy":1,"la1":30.253999710083008,"la2":30.299108505249023,"lo1":-89.0895004272461,"lo2":-89.04439544677734,"nx":28,"ny":28,"refTime":"2022-09-27T21:00:00:Z","depth":0,"parameterNumber":1,"parameterNumberName":"U-component_of_WINDS"},"data":[-8.1491,-8.1721,-8.1669,-8.1907,-8.19,-8.2054,-8.2092,-8.2135,-8.2155,-8.2331,-8.2422,-8.2392,-8.2391,-8.2487,-8.2583,-8.2566,-8.2614,-8.2733,-8.2695,-8.2208,-8.2137,-8.207,-8.2014,-8.2742,-8.2743,-8.3209,-8.3214,-8.3217,-8.1138,-8.1134,-8.1244,-8.1316,-8.141,-8.1263,-8.1307,-8.1396,-8.1536,-8.1563,-8.165,-8.18,-8.1911,-8.1868,-8.1966,-8.2071,-8.201,-8.2102,-8.2098,-8.2101,-8.1576,-8.1517,-8.2151,-8.2151,-8.2151,-8.2151,-8.2151,-8.215,-8.0482,-8.0622,-8.0635,-8.0753,-8.0774,-8.0822,-8.0946,-8.0905,-8.1011,-8.1108,-8.1022,-8.118,-8.1196,-8.1287,-8.1304,-8.1425,-8.1313,-8.1399,-8.1422,-8.1447,-8.1484,-8.0826,-8.1438,-8.1436,-8.1434,-8.1432,-8.1431,0,-7.9988,-7.9935,-8.0036,-8.0123,-8.0206,-8.0268,-8.0315,-8.0389,-8.0256,-8.035,-8.048,-8.0547,-8.0676,-8.0794,-8.0872,-8.0872,-8.0733,-8.071,-8.077,-8.082,-8.0853,-8.0844,-7.9997,-8.0695,-8.0688,-8.0683,-8.068,-8.0677,-7.9328,-7.9495,-7.9482,-7.956,-7.9573,-7.9701,-7.9767,-7.9636,-7.9712,-7.975,-7.9879,-7.9993,-8.0079,-8.0295,-8.0246,-8.0343,-8.0278,-8.0551,-8.0292,-8.033,-8.029,-8.0285,-8.0302,-8.0608,-8.0616,-8.0624,-8.063,0,-7.8963,-7.8875,-7.9117,-7.9086,-7.9083,-7.9265,-7.9238,-7.9371,-7.9316,-7.9491,-7.9524,-7.944,-7.957,-7.9475,-7.9604,-7.9551,-7.9852,-7.9781,-7.9846,-7.9829,-8.0069,-8.0051,-8.0851,-8.0951,-8.0188,-8.0195,-8.0201,0,-7.8369,-7.8593,-7.8449,-7.8595,-7.8838,-7.8702,-7.8947,-7.8924,-7.8935,-7.9072,-7.8894,-7.9027,-7.8884,-7.9002,-7.8924,-7.9151,-7.9174,-7.9149,-7.9128,-7.917,-7.9175,-7.9214,-7.9183,-7.9063,-7.9059,-7.9055,-7.9052,0,-7.7812,-7.7995,-7.8229,-7.8257,-7.8247,-7.836,-7.8361,-7.8371,-7.8437,-7.8505,-7.8547,-7.8636,-7.8688,-7.8759,-7.866,-7.8488,-7.8933,-7.8677,-7.8909,-7.8913,-7.9019,-7.9016,-7.9741,-7.9047,-7.9046,-7.9045,-7.9043,0,-7.7321,-7.7394,-7.7744,-7.7732,-7.7786,-7.7939,-7.8018,-7.8127,-7.8151,-7.8111,-7.8164,-7.8037,-7.8224,-7.7977,-7.8234,-7.804,-7.81,-7.8091,-7.8106,-7.8124,-7.7853,-7.8284,-7.8978,-7.905,-7.8131,-7.8123,-7.8117,0,-7.6711,-7.704,-7.6926,-7.7261,-7.7401,-7.7194,-7.7361,-7.7387,-7.7348,-7.746,-7.7415,-7.7545,-7.734,-7.7368,-7.7506,-7.7468,-7.772,-7.7429,-7.76,-7.7607,-7.7607,-7.8242,-7.8373,-7.8834,-7.8018,-7.8028,-7.8036,0,-7.6228,-7.6214,-7.6282,-7.6309,-7.6321,-7.6437,-7.6627,-7.6725,-7.6807,-7.6854,-7.7014,-7.7189,-7.7043,-7.7091,-7.6997,-7.7147,-7.7545,-7.6971,-7.697,-7.7084,-7.7958,-7.8082,-7.816,-7.7449,-7.746,-7.747,-7.7957,0,-7.5518,-7.5669,-7.5847,-7.5912,-7.5985,-7.6188,-7.6088,-7.6177,-7.6079,-7.6033,-7.6263,-7.626,-7.6361,-7.6421,-7.6327,-7.6699,-7.6624,-7.6467,-7.6226,-7.6641,-7.68,-7.6864,-7.5998,-7.599,-7.5983,-7.5978,0,0,-7.496,-7.5175,-7.5044,-7.5224,-7.5279,-7.5062,-7.5289,-7.5316,-7.5378,-7.5421,-7.5283,-7.5535,-7.554,-7.5831,-7.5952,-7.5991,-7.605,-7.5909,-7.6443,-7.6495,-7.6543,-7.6715,-7.6783,-7.5966,-7.5964,-7.5962,-7.596,0,-7.4681,-7.4687,-7.4912,-7.4933,-7.4961,-7.4901,-7.4955,-7.4946,-7.4927,-7.515,-7.4971,-7.5096,-7.5301,-7.5331,-7.5373,-7.5869,-7.573,-7.5906,-7.6209,-7.638,-7.6441,-7.6495,-7.6676,-7.6743,-7.5944,-7.5945,-7.5945,0,-7.4192,-7.4184,-7.4281,-7.4391,-7.4408,-7.4556,-7.4276,-7.4444,-7.4552,-7.4309,-7.4535,-7.4521,-7.4552,-7.4837,-7.4961,-7.4841,-7.5445,-7.5235,-7.5273,-7.5287,-7.5449,-7.5522,-7.5588,-7.4729,-7.4725,-7.4722,0,0,-7.3966,-7.4105,-7.4056,-7.4324,-7.4347,-7.4261,-7.4329,-7.4239,-7.427,-7.4284,-7.4264,-7.4301,-7.4417,-7.4498,-7.4603,-7.493,-7.4928,-7.5089,-7.5147,-7.5194,-7.5234,-7.5408,-7.5481,-7.4708,-7.4707,-7.4707,0,0,-7.3858,-7.3812,-7.3708,-7.4005,-7.4041,-7.4012,-7.418,-7.4052,-7.4136,-7.4102,-7.3959,-7.3962,-7.4227,-7.4221,-7.4039,-7.4517,-7.4279,-7.432,-7.4512,-7.4583,-7.464,-7.4639,-7.3756,0,0,0,0,0,-7.3523,-7.3816,-7.3723,-7.3757,-7.3897,-7.4064,-7.4081,-7.3969,-7.3803,-7.3938,-7.3901,-7.3745,-7.4093,-7.3929,-7.3966,-7.4173,-7.4522,-7.4555,-7.4586,-7.491,-7.4985,-7.5049,0,0,0,0,0,0,-7.3535,-7.3579,-7.3714,-7.37,-7.373,-7.4052,-7.3747,-7.3724,-7.3786,-7.3753,-7.3757,-7.3745,-7.3654,-7.3902,-7.3938,-7.4136,-7.3744,-7.4535,-7.4563,-7.4588,-7.4936,-7.4997,-7.505,0,0,0,0,0,-7.3545,-7.3579,-7.3833,-7.3695,-7.3721,-7.3642,-7.3735,-7.3713,-7.3759,-7.3702,-7.3685,-7.3669,-7.3662,-7.3684,-7.3923,-7.4123,-7.3719,-7.3732,-7.4553,-7.4575,-7.4595,-7.4966,0,0,0,0,0,0,-7.3552,-7.3562,-7.3836,-7.384,-7.3575,-7.3622,-7.3625,-7.3705,-7.3702,-7.3688,-7.3605,-7.358,-7.3672,-7.3687,-7.3705,-7.4125,-7.3698,-7.3712,-7.372,-7.457,-7.4587,-7.4602,0,0,0,0,0,0,-7.3542,-7.3567,-7.3838,-7.3693,-7.3679,-7.3604,-7.3607,-7.3793,-7.3705,-7.3605,-7.3583,-7.3594,-7.3645,-7.3691,-7.3704,-7.3999,-7.3682,-7.3695,-7.3705,-7.371,-7.4584,-7.4597,0,0,0,0,0,0,-7.355,-7.3571,-7.3691,-7.3681,-7.3668,-7.3703,-7.3765,-7.3916,-7.358,-7.3608,-7.3547,-7.3532,-7.3654,-7.3664,-7.3705,-7.3995,-7.3998,-7.3682,-7.3691,-7.3698,-7.3702,0,0,0,0,0,0,0,-7.3557,-7.3444,-7.3813,-7.3671,-7.3659,-7.3875,-7.3876,-7.3877,-7.3577,-7.3564,-7.355,-7.3538,-7.3606,-7.3621,-7.3635,-7.3992,0,0,-7.3681,-7.3688,0,0,0,0,0,0,0,0,-7.3432,-7.3441,-7.3813,-7.3814,-7.3815,-7.3875,-7.3876,-7.3877,-7.3575,-7.3564,-7.3553,-7.3543,-7.361,-7.3622,-7.3634,0,0,0,0,0,0,0,0,0,0,0,0,0,0,0,-7.3813,-7.3814,0,-7.3875,-7.3876,-7.3877,-7.3573,-7.3564,-7.3555,-7.3547,-7.3613,-7.3623,-7.3633,0,0,0,0,0,0,0,0,0,0,0,0,0,0,0,0,0,0,0,0,0,0,0,0,0,0,0,0,0,0,0,0,0,0,0,0,0,0,0,0,0,0,0,0,0,0,0,0,0,0,0,0,0,0,0,0,0,0,0,0,0,0,0,0,0,0,0,0,0]}],[{"header":{"parameterUnit":"kt","parameterCategory":2,"dx":1,"dy":1,"la1":30.253999710083008,"la2":30.299108505249023,"lo1":-89.0895004272461,"lo2":-89.04439544677734,"nx":28,"ny":28,"refTime":"2022-09-27T21:00:00:Z","depth":0,"parameterNumber":2,"parameterNumberName":"V-component_of_WINDS"},"data":[-16.0693,-16.0968,-16.0945,-16.1244,-16.1273,-16.1472,-16.1534,-16.1612,-16.1666,-16.1895,-16.2022,-16.2021,-16.206,-16.2201,-16.2333,-16.2328,-16.2386,-16.2501,-16.2476,-16.1987,-16.1917,-16.1851,-16.1786,-16.2515,-16.2515,-16.2986,-16.299,-16.2993,-16.0336,-16.037,-16.0522,-16.0653,-16.0782,-16.0657,-16.0748,-16.0862,-16.1042,-16.111,-16.1233,-16.1432,-16.1583,-16.1582,-16.1721,-16.1843,-16.179,-16.1882,-16.1873,-16.188,-16.1357,-16.1289,-16.1923,-16.1923,-16.1923,-16.1923,-16.1923,-16.1923,-15.968,-15.9846,-15.9911,-16.0076,-16.0134,-16.022,-16.0372,-16.0368,-16.0513,-16.066,-16.0598,-16.0799,-16.0858,-16.1011,-16.1054,-16.1206,-16.1096,-16.1188,-16.1211,-16.1236,-16.1268,-16.0593,-16.1227,-16.1225,-16.1223,-16.1222,-16.122,0,-15.9192,-15.9161,-15.9305,-15.9443,-15.956,-15.9663,-15.9751,-15.9844,-15.9762,-15.9885,-16.0059,-16.0153,-16.0338,-16.0496,-16.0618,-16.0643,-16.0521,-16.0504,-16.0567,-16.0602,-16.0617,-16.0612,-15.976,-16.0486,-16.048,-16.0475,-16.0471,-16.0469,-15.8527,-15.8724,-15.8779,-15.8883,-15.8926,-15.9095,-15.9189,-15.9102,-15.9206,-15.9298,-15.9446,-15.9603,-15.9724,-16.0003,-15.999,-16.0126,-16.0067,-16.0348,-16.0087,-16.0112,-16.0072,-16.0061,-16.008,-16.0401,-16.0409,-16.0416,-16.0422,0,-15.8156,-15.8114,-15.8409,-15.8442,-15.8456,-15.8664,-15.869,-15.8849,-15.8826,-15.904,-15.9085,-15.9049,-15.9218,-15.916,-15.934,-15.9303,-15.9639,-15.9577,-15.9618,-15.9602,-15.9848,-15.9826,-16.0653,-16.0756,-16.0,-16.0007,-16.0013,0,-15.7572,-15.7832,-15.7754,-15.7927,-15.8211,-15.8117,-15.84,-15.8408,-15.8459,-15.8627,-15.848,-15.864,-15.8539,-15.869,-15.8636,-15.8899,-15.8933,-15.892,-15.8903,-15.8935,-15.8936,-15.8986,-15.8951,-15.8856,-15.8852,-15.8848,-15.8845,0,-15.6995,-15.7257,-15.7538,-15.759,-15.765,-15.7783,-15.7813,-15.7869,-15.7961,-15.807,-15.8128,-15.8261,-15.8334,-15.8437,-15.8368,-15.8194,-15.8688,-15.8433,-15.8675,-15.8678,-15.8788,-15.8782,-15.953,-15.884,-15.8838,-15.8837,-15.8836,0,-15.6517,-15.6635,-15.7049,-15.7094,-15.7166,-15.735,-15.7477,-15.762,-15.7689,-15.7668,-15.7753,-15.7647,-15.7872,-15.7623,-15.7932,-15.7724,-15.7803,-15.7811,-15.7827,-15.7844,-15.7568,-15.7998,-15.8715,-15.8788,-15.7859,-15.785,-15.7843,0,-15.5867,-15.6274,-15.6197,-15.6591,-15.677,-15.6593,-15.6794,-15.686,-15.685,-15.6996,-15.698,-15.7148,-15.6951,-15.6994,-15.7155,-15.7145,-15.7415,-15.7107,-15.7315,-15.7323,-15.7304,-15.7963,-15.8085,-15.8565,-15.7738,-15.7749,-15.7757,0,-15.5359,-15.5432,-15.5509,-15.5563,-15.5639,-15.5787,-15.6019,-15.6165,-15.6268,-15.6357,-15.6547,-15.678,-15.664,-15.6714,-15.6641,-15.6811,-15.7229,-15.6637,-15.6637,-15.6746,-15.768,-15.7795,-15.7876,-15.7142,-15.7154,-15.7164,-15.7674,0,-15.4646,-15.4843,-15.5046,-15.5174,-15.528,-15.5523,-15.5464,-15.5581,-15.5501,-15.5484,-15.5761,-15.5798,-15.5945,-15.602,-15.5943,-15.6352,-15.6274,-15.6122,-15.5876,-15.6309,-15.6475,-15.6543,-15.5633,-15.5626,-15.5619,-15.5614,0,0,-15.4035,-15.4317,-15.4225,-15.4448,-15.4531,-15.4344,-15.4609,-15.4667,-15.479,-15.485,-15.4712,-15.5047,-15.5083,-15.5426,-15.5556,-15.5616,-15.5682,-15.5534,-15.6103,-15.6158,-15.6209,-15.6388,-15.646,-15.5603,-15.56,-15.5598,-15.5596,0,-15.3763,-15.381,-15.4075,-15.4132,-15.4214,-15.4183,-15.4247,-15.4293,-15.4293,-15.4566,-15.4405,-15.4563,-15.4834,-15.4893,-15.4958,-15.5491,-15.5359,-15.5539,-15.5847,-15.6041,-15.6104,-15.616,-15.6349,-15.6419,-15.558,-15.5581,-15.5582,0,-15.3251,-15.3288,-15.3409,-15.3592,-15.3643,-15.3831,-15.3559,-15.3769,-15.3906,-15.3686,-15.3959,-15.3972,-15.4045,-15.4378,-15.4524,-15.4402,-15.5068,-15.4847,-15.4886,-15.49,-15.5085,-15.5161,-15.5229,-15.4333,-15.4329,-15.4325,0,0,-15.3023,-15.3206,-15.3217,-15.3529,-15.3572,-15.353,-15.3623,-15.3554,-15.3626,-15.3656,-15.3669,-15.3742,-15.3897,-15.4002,-15.4145,-15.4519,-15.4525,-15.4696,-15.4755,-15.4803,-15.4844,-15.5041,-15.5117,-15.431,-15.431,-15.4309,0,0,-15.2913,-15.2939,-15.2847,-15.3202,-15.3279,-15.3307,-15.3498,-15.3384,-15.3507,-15.3472,-15.3361,-15.3375,-15.3685,-15.3703,-15.3504,-15.4055,-15.3813,-15.3859,-15.4033,-15.4106,-15.4164,-15.4153,-15.3228,0,0,0,0,0,-15.2605,-15.2935,-15.2852,-15.2902,-15.3131,-15.3354,-15.3382,-15.33,-15.313,-15.3283,-15.3275,-15.3128,-15.3572,-15.3394,-15.3444,-15.3667,-15.4112,-15.4147,-15.418,-15.4492,-15.457,-15.4635,0,0,0,0,0,0,-15.2624,-15.2687,-15.2842,-15.2887,-15.2937,-15.3341,-15.3035,-15.3022,-15.3111,-15.3079,-15.3134,-15.313,-15.3061,-15.3362,-15.3409,-15.3622,-15.3212,-15.4126,-15.4155,-15.4182,-15.4519,-15.4582,-15.4636,0,0,0,0,0,-15.2639,-15.2689,-15.3078,-15.2881,-15.2925,-15.2895,-15.3022,-15.3008,-15.3076,-15.3065,-15.3055,-15.3006,-15.307,-15.3103,-15.3389,-15.3603,-15.3179,-15.3197,-15.4145,-15.4168,-15.419,-15.455,0,0,0,0,0,0,-15.265,-15.2677,-15.3085,-15.3095,-15.275,-15.287,-15.2886,-15.2998,-15.3053,-15.3048,-15.2929,-15.2903,-15.308,-15.3103,-15.313,-15.3602,-15.3152,-15.3171,-15.3182,-15.4163,-15.4181,-15.4198,0,0,0,0,0,0,-15.2649,-15.2687,-15.309,-15.293,-15.2921,-15.2848,-15.2863,-15.3093,-15.3056,-15.2913,-15.2893,-15.2917,-15.3038,-15.3106,-15.3126,-15.3489,-15.3132,-15.3149,-15.3161,-15.3169,-15.4178,-15.4192,0,0,0,0,0,0,-15.2663,-15.2696,-15.2927,-15.292,-15.2911,-15.3018,-15.3049,-15.3287,-15.2923,-15.2913,-15.2887,-15.2871,-15.3046,-15.3063,-15.3124,-15.348,-15.3486,-15.3133,-15.3144,-15.3153,-15.3158,0,0,0,0,0,0,0,-15.2675,-15.2479,-15.3026,-15.2912,-15.2903,-15.3189,-15.3191,-15.3194,-15.2919,-15.2905,-15.2891,-15.2878,-15.3034,-15.3053,-15.3072,-15.3473,0,0,-15.3131,-15.3139,0,0,0,0,0,0,0,0,-15.2463,-15.2475,-15.3026,-15.3029,-15.3031,-15.3189,-15.3191,-15.3193,-15.2917,-15.2905,-15.2894,-15.2883,-15.3039,-15.3054,-15.307,0,0,0,0,0,0,0,0,0,0,0,0,0,0,0,-15.3027,-15.3028,0,-15.3189,-15.3191,-15.3193,-15.2915,-15.2906,-15.2896,-15.2888,-15.3043,-15.3056,-15.3069,0,0,0,0,0,0,0,0,0,0,0,0,0,0,0,0,0,0,0,0,0,0,0,0,0,0,0,0,0,0,0,0,0,0,0,0,0,0,0,0,0,0,0,0,0,0,0,0,0,0,0,0,0,0,0,0,0,0,0,0,0,0,0,0,0,0,0,0,0]}]]]